カタログに戻る

STARLINK-11418

運用中通信VLEO
NORAD 63058·PAYLOAD·🇺🇸 United States

打ち上げ Feb 21, 2025 から Cape Canaveral Space Force Station

Loading…

次のパス (今後24時間)

TLE

最新Source: CelesTrak SupGP

元期: Sep 15, 2026, 02:11 UTC

1 63058C 25035G   26258.09145833  .00056426  00000+0  43837-3 0  2581
2 63058  43.0001 314.0693 0001652 247.2039 147.8064 15.70804346    18

AllMySatでSTARLINK-11418をリアルタイム追跡

Download on the App Store